Time,TemperatureF,DewpointF,PressureIn,WindDirection,WindDirectionDegrees,WindSpeedMPH,WindSpeedGustMPH,Humidity,HourlyPrecipIn,Conditions,Clouds,dailyrainin,SoftwareType,DateUTC
2013-03-03 00:01:00,30.0,22.0,29.79,SSE,158,0.0,0.0,72,0.00,,,0.00,,2013-03-03 07:01:00,
2013-03-03 00:11:00,30.0,22.0,29.79,SSE,158,0.0,0.0,72,0.00,,,0.00,,2013-03-03 07:11:00,
2013-03-03 00:21:00,30.0,22.0,29.78,SSE,158,0.0,0.0,73,0.00,,,0.00,,2013-03-03 07:21:00,
2013-03-03 00:31:00,30.0,22.0,29.73,SSE,158,0.0,0.0,73,0.00,,,0.00,,2013-03-03 07:31:00,
2013-03-03 00:42:00,30.0,22.0,29.73,SSE,158,0.0,0.0,73,0.00,,,0.00,,2013-03-03 07:42:00,
2013-03-03 00:51:00,30.0,23.0,29.72,SSE,158,0.0,0.0,74,0.00,,,0.00,,2013-03-03 07:51:00,
2013-03-03 01:01:00,29.0,22.0,29.73,SSE,158,0.0,0.0,74,0.00,,,0.00,,2013-03-03 08:01:00,
2013-03-03 01:11:00,29.0,22.0,29.73,SSE,158,0.0,0.0,74,0.00,,,0.00,,2013-03-03 08:11:00,
2013-03-03 01:21:00,29.0,22.0,29.72,SSE,158,0.0,0.0,74,0.00,,,0.00,,2013-03-03 08:21:00,
2013-03-03 01:31:00,29.0,22.0,29.71,SSE,158,0.0,0.0,75,0.00,,,0.00,,2013-03-03 08:31:00,
2013-03-03 01:41:00,29.0,22.0,29.71,SSE,158,0.0,0.0,75,0.00,,,0.00,,2013-03-03 08:41:00,
2013-03-03 01:53:00,29.0,22.0,29.70,SSE,158,0.0,0.0,75,0.00,,,0.00,,2013-03-03 08:53:00,
2013-03-03 02:01:00,29.0,22.0,29.70,SSE,158,0.0,0.0,75,0.00,,,0.00,,2013-03-03 09:01:00,
2013-03-03 02:11:00,29.0,22.0,29.70,SSE,158,0.0,0.0,75,0.00,,,0.00,,2013-03-03 09:11:00,
2013-03-03 02:21:00,29.0,22.0,29.69,SSE,158,0.0,2.0,76,0.00,,,0.00,,2013-03-03 09:21:00,
2013-03-03 02:31:00,28.0,21.0,29.68,SSE,158,1.0,3.0,76,0.00,,,0.00,,2013-03-03 09:31:00,
2013-03-03 02:41:00,28.0,21.0,29.68,SSE,158,1.0,3.0,76,0.00,,,0.00,,2013-03-03 09:41:00,
2013-03-03 02:52:00,28.0,21.0,29.67,SSE,158,1.0,3.0,76,0.00,,,0.00,,2013-03-03 09:52:00,
2013-03-03 03:01:00,28.0,21.0,29.66,SSE,158,0.0,0.0,76,0.00,,,0.00,,2013-03-03 10:01:00,
2013-03-03 03:11:00,28.0,21.0,29.66,SSE,158,0.0,0.0,76,0.00,,,0.00,,2013-03-03 10:11:00,
2013-03-03 03:21:00,28.0,22.0,29.65,SSE,158,0.0,0.0,77,0.00,,,0.00,,2013-03-03 10:21:00,
2013-03-03 03:31:00,28.0,22.0,29.65,SSE,158,0.0,0.0,77,0.00,,,0.00,,2013-03-03 10:31:00,
2013-03-03 03:41:00,28.0,22.0,29.65,SSE,158,0.0,0.0,77,0.00,,,0.00,,2013-03-03 10:41:00,
2013-03-03 03:52:00,28.0,22.0,29.65,SSE,157,0.0,0.0,77,0.00,,,0.00,,2013-03-03 10:52:00,
2013-03-03 04:01:00,28.0,22.0,29.64,SSE,147,0.0,3.0,78,0.00,,,0.00,,2013-03-03 11:01:00,
2013-03-03 04:11:00,28.0,22.0,29.64,SSE,147,0.0,3.0,78,0.00,,,0.00,,2013-03-03 11:11:00,
2013-03-03 04:21:00,29.0,23.0,29.63,SSE,147,1.0,3.0,77,0.00,,,0.00,,2013-03-03 11:21:00,
2013-03-03 04:31:00,28.0,22.0,29.63,SSE,147,0.0,2.0,77,0.00,,,0.00,,2013-03-03 11:31:00,
2013-03-03 04:41:00,28.0,22.0,29.63,SSE,147,0.0,2.0,77,0.00,,,0.00,,2013-03-03 11:41:00,
2013-03-03 04:52:00,29.0,23.0,29.62,SSE,147,0.0,0.0,77,0.00,,,0.00,,2013-03-03 11:52:00,
2013-03-03 05:01:00,29.0,23.0,29.64,SSE,147,0.0,0.0,77,0.00,,,0.00,,2013-03-03 12:01:00,
2013-03-03 05:11:00,29.0,23.0,29.64,SSE,147,0.0,0.0,77,0.00,,,0.00,,2013-03-03 12:11:00,
2013-03-03 05:21:00,29.0,22.0,29.65,SSE,147,2.0,3.0,76,0.00,,,0.00,,2013-03-03 12:21:00,
2013-03-03 05:31:00,29.0,22.0,29.66,SE,141,1.0,3.0,76,0.00,,,0.00,,2013-03-03 12:31:00,
2013-03-03 05:42:00,29.0,22.0,29.66,SE,141,1.0,3.0,76,0.00,,,0.00,,2013-03-03 12:42:00,
2013-03-03 05:52:00,29.0,22.0,29.66,SE,141,0.0,2.0,76,0.00,,,0.00,,2013-03-03 12:52:00,
2013-03-03 06:01:00,30.0,23.0,29.65,SE,141,0.0,2.0,75,0.00,,,0.00,,2013-03-03 13:01:00,
2013-03-03 06:11:00,30.0,23.0,29.65,SE,141,0.0,2.0,75,0.00,,,0.00,,2013-03-03 13:11:00,
2013-03-03 06:21:00,30.0,23.0,29.65,SE,141,0.0,0.0,75,0.00,,,0.00,,2013-03-03 13:21:00,
2013-03-03 06:31:00,31.0,24.0,29.67,SE,141,0.0,0.0,74,0.00,,,0.00,,2013-03-03 13:31:00,
2013-03-03 06:41:00,31.0,24.0,29.67,SE,141,0.0,0.0,74,0.00,,,0.00,,2013-03-03 13:41:00,
2013-03-03 06:52:00,31.0,24.0,29.67,SE,143,0.0,2.0,74,0.00,,,0.00,,2013-03-03 13:52:00,
2013-03-03 07:01:00,31.0,24.0,29.67,SE,143,0.0,0.0,75,0.00,,,0.00,,2013-03-03 14:01:00,
2013-03-03 07:11:00,31.0,24.0,29.67,SE,143,0.0,0.0,75,0.00,,,0.00,,2013-03-03 14:11:00,
2013-03-03 07:21:00,31.0,24.0,29.67,SE,143,0.0,0.0,76,0.00,,,0.00,,2013-03-03 14:21:00,
2013-03-03 07:31:00,32.0,26.0,29.69,SE,142,0.0,2.0,78,0.00,,,0.00,,2013-03-03 14:31:00,
2013-03-03 07:42:00,32.0,26.0,29.69,SE,142,0.0,2.0,78,0.00,,,0.00,,2013-03-03 14:42:00,
2013-03-03 07:52:00,33.0,28.0,29.67,SE,143,0.0,0.0,80,0.00,,,0.00,,2013-03-03 14:52:00,
2013-03-03 08:01:00,34.0,29.0,29.66,SE,143,2.0,3.0,82,0.00,,,0.00,,2013-03-03 15:01:00,
2013-03-03 08:11:00,34.0,29.0,29.66,SE,143,2.0,3.0,82,0.00,,,0.00,,2013-03-03 15:11:00,
2013-03-03 08:21:00,35.0,30.0,29.65,SE,140,1.0,3.0,82,0.02,,,0.02,,2013-03-03 15:21:00,
2013-03-03 08:31:00,35.0,30.0,29.67,SE,138,1.0,3.0,83,0.03,,,0.03,,2013-03-03 15:31:00,
2013-03-03 08:41:00,35.0,30.0,29.67,SE,138,1.0,3.0,83,0.03,,,0.03,,2013-03-03 15:41:00,
2013-03-03 08:52:00,35.0,30.0,29.66,SE,138,0.0,3.0,83,0.05,,,0.05,,2013-03-03 15:52:00,
2013-03-03 09:01:00,35.0,30.0,29.66,SE,140,0.0,0.0,83,0.05,,,0.05,,2013-03-03 16:01:00,
2013-03-03 09:11:00,35.0,30.0,29.66,SE,140,0.0,0.0,83,0.05,,,0.05,,2013-03-03 16:11:00,
2013-03-03 09:21:00,35.0,31.0,29.65,SE,140,0.0,0.0,84,0.05,,,0.07,,2013-03-03 16:21:00,
2013-03-03 09:31:00,35.0,31.0,29.67,SE,140,0.0,0.0,85,0.04,,,0.07,,2013-03-03 16:31:00,
2013-03-03 09:41:00,35.0,31.0,29.67,SE,140,0.0,0.0,85,0.04,,,0.07,,2013-03-03 16:41:00,
2013-03-03 09:52:00,35.0,31.0,29.66,SE,140,0.0,0.0,85,0.02,,,0.07,,2013-03-03 16:52:00,
2013-03-03 10:01:00,34.0,30.0,29.67,SE,140,0.0,0.0,85,0.04,,,0.09,,2013-03-03 17:01:00,
2013-03-03 10:11:00,34.0,30.0,29.66,SE,134,2.0,3.0,85,0.04,,,0.11,,2013-03-03 17:11:00,
2013-03-03 10:21:00,34.0,30.0,29.66,SE,134,2.0,3.0,85,0.04,,,0.11,,2013-03-03 17:21:00,
2013-03-03 10:32:00,34.0,30.0,29.66,SE,133,0.0,2.0,86,0.04,,,0.11,,2013-03-03 17:32:00,
2013-03-03 10:41:00,34.0,30.0,29.66,SE,133,0.0,2.0,86,0.04,,,0.11,,2013-03-03 17:41:00,
2013-03-03 10:52:00,35.0,31.0,29.65,SE,133,0.0,0.0,86,0.06,,,0.13,,2013-03-03 17:52:00,
2013-03-03 11:01:00,35.0,31.0,29.65,SE,133,0.0,0.0,86,0.04,,,0.13,,2013-03-03 18:01:00,
2013-03-03 11:11:00,35.0,31.0,29.65,SE,133,0.0,0.0,86,0.04,,,0.13,,2013-03-03 18:11:00,
2013-03-03 11:21:00,35.0,31.0,29.65,SE,133,0.0,0.0,86,0.04,,,0.15,,2013-03-03 18:21:00,
2013-03-03 11:31:00,35.0,31.0,29.66,North,356,1.0,3.0,85,0.06,,,0.17,,2013-03-03 18:31:00,
2013-03-03 11:41:00,35.0,31.0,29.66,North,356,1.0,3.0,85,0.06,,,0.17,,2013-03-03 18:41:00,
2013-03-03 11:52:00,34.0,30.0,29.66,North,356,1.0,2.0,85,0.06,,,0.19,,2013-03-03 18:52:00,
2013-03-03 12:01:00,35.0,31.0,29.66,North,356,0.0,0.0,85,0.08,,,0.21,,2013-03-03 19:01:00,
2013-03-03 12:11:00,35.0,31.0,29.65,North,356,0.0,0.0,86,0.08,,,0.23,,2013-03-03 19:11:00,
2013-03-03 12:21:00,35.0,31.0,29.65,North,356,0.0,0.0,86,0.08,,,0.23,,2013-03-03 19:21:00,
2013-03-03 12:31:00,36.0,33.0,29.65,North,356,0.0,0.0,87,0.06,,,0.23,,2013-03-03 19:31:00,
2013-03-03 12:42:00,36.0,33.0,29.65,North,356,0.0,0.0,87,0.06,,,0.23,,2013-03-03 19:42:00,
2013-03-03 12:52:00,37.0,33.0,29.63,North,356,0.0,1.0,86,0.06,,,0.25,,2013-03-03 19:52:00,
2013-03-03 13:01:00,36.0,32.0,29.64,NW,322,2.0,7.0,85,0.06,,,0.27,,2013-03-03 20:01:00,
2013-03-03 13:11:00,36.0,32.0,29.64,NW,322,2.0,7.0,85,0.06,,,0.27,,2013-03-03 20:11:00,
2013-03-03 13:21:00,35.0,31.0,29.64,West,260,3.0,12.0,85,0.06,,,0.29,,2013-03-03 20:21:00,
2013-03-03 13:32:00,35.0,31.0,29.63,WSW,254,8.0,14.0,85,0.08,,,0.31,,2013-03-03 20:32:00,
2013-03-03 13:42:00,35.0,31.0,29.63,WSW,254,8.0,14.0,85,0.08,,,0.31,,2013-03-03 20:42:00,
2013-03-03 13:52:00,35.0,31.0,29.62,West,259,5.0,12.0,85,0.08,,,0.33,,2013-03-03 20:52:00,
2013-03-03 14:01:00,36.0,32.0,29.61,West,261,4.0,12.0,85,0.06,,,0.33,,2013-03-03 21:01:00,
2013-03-03 14:11:00,36.0,32.0,29.61,West,261,4.0,12.0,85,0.06,,,0.33,,2013-03-03 21:11:00,
2013-03-03 14:21:00,36.0,31.0,29.61,WSW,241,9.0,15.0,83,0.04,,,0.33,,2013-03-03 21:21:00,
2013-03-03 14:31:00,37.0,32.0,29.61,SW,236,6.0,12.0,83,0.04,,,0.35,,2013-03-03 21:31:00,
2013-03-03 14:41:00,37.0,32.0,29.61,SW,236,6.0,12.0,83,0.04,,,0.35,,2013-03-03 21:41:00,
2013-03-03 14:52:00,37.0,32.0,29.60,WSW,258,6.0,12.0,83,0.02,,,0.35,,2013-03-03 21:52:00,
2013-03-03 15:01:00,37.0,32.0,29.60,West,260,5.0,13.0,82,0.02,,,0.35,,2013-03-03 22:01:00,
2013-03-03 15:11:00,37.0,32.0,29.60,West,260,5.0,13.0,82,0.02,,,0.35,,2013-03-03 22:11:00,
2013-03-03 15:21:00,37.0,32.0,29.59,West,275,5.0,14.0,81,0.04,,,0.37,,2013-03-03 22:21:00,
2013-03-03 15:31:00,38.0,33.0,29.58,West,263,5.0,8.0,81,0.02,,,0.37,,2013-03-03 22:31:00,
2013-03-03 15:41:00,38.0,33.0,29.58,West,263,5.0,8.0,81,0.02,,,0.37,,2013-03-03 22:41:00,
2013-03-03 15:52:00,38.0,32.0,29.58,West,260,6.0,16.0,80,0.02,,,0.37,,2013-03-03 22:52:00,
2013-03-03 16:01:00,38.0,32.0,29.58,West,267,5.0,12.0,80,0.02,,,0.37,,2013-03-03 23:01:00,
2013-03-03 16:11:00,38.0,32.0,29.58,West,267,5.0,12.0,80,0.02,,,0.37,,2013-03-03 23:11:00,
2013-03-03 16:21:00,38.0,32.0,29.57,West,267,4.0,16.0,79,0.00,,,0.37,,2013-03-03 23:21:00,
2013-03-03 16:31:00,38.0,32.0,29.57,West,261,5.0,10.0,79,0.00,,,0.37,,2013-03-03 23:31:00,
2013-03-03 16:41:00,38.0,32.0,29.57,West,261,5.0,10.0,79,0.00,,,0.37,,2013-03-03 23:41:00,
2013-03-03 16:52:00,38.0,32.0,29.57,NW,309,3.0,8.0,79,0.00,,,0.37,,2013-03-03 23:52:00,
2013-03-03 17:00:00,37.0,32.0,29.57,West,281,1.0,3.0,81,0.00,,,0.37,,2013-03-04 00:00:00,
2013-03-03 17:01:00,37.0,31.0,29.57,NW,305,3.0,7.0,80,0.00,,,0.37,,2013-03-04 00:01:00,
2013-03-03 17:11:00,37.0,31.0,29.57,NW,305,3.0,7.0,80,0.00,,,0.37,,2013-03-04 00:11:00,
2013-03-03 17:21:00,37.0,32.0,29.57,West,281,1.0,3.0,81,0.00,,,0.37,,2013-03-04 00:21:00,
2013-03-03 17:31:00,37.0,32.0,29.57,West,281,1.0,3.0,81,0.00,,,0.37,,2013-03-04 00:31:00,
2013-03-03 17:41:00,37.0,32.0,29.57,West,281,1.0,3.0,81,0.00,,,0.37,,2013-03-04 00:41:00,
2013-03-03 17:52:00,37.0,32.0,29.57,West,281,1.0,3.0,81,0.00,,,0.37,,2013-03-04 00:52:00,